Tracking 30262 objects as of 17-Feb-2025
HD Live streaming from Space Station
objects crossing your sky now

DELTA 1 DEB

Track DELTA 1 DEB now!
10-day predictions


NORAD ID: 9040
Int'l Code: 1975-004DE
Perigee: 704.3 km
Apogee: 771.1 km
Inclination: 98.0 °
Period: 99.4 minutes
Semi major axis: 7108 km
RCS: 0.0254 m2 (small)
Launch date: January 22, 1975
Source: United States (US)
Launch site: AIR FORCE WESTERN TEST RANGE (AFWTR)

Note: This is SATELLITE DEBRIS
Your satellite tracking list
Your tracking list is empty




NASA's NSSDC Master Catalog

Two Line Element Set (TLE):
1 09040U 75004DE  25047.79040160  .00000521  00000-0  14801-3 0  9999
2 09040  97.9776 138.2751 0047023  34.0110 326.4083 14.48491523543089
Source of the keplerian elements: AFSPC